STARLINK-35008, 65408

Orbit data source: Space-Track

STARLINK-35008, 65408 is a payload satellite owned by SpaceX/Seattle (US) in LEO that was launched on Sun, 31 Aug 2025 UTC via an FALCON 9 launch vehicle from the Air Force Eastern Test Range (AFETR). Payload-class satellites include a variety of spacecraft equipped with specific instruments for various scientific and technological missions. These include communications satellites like Starlink; space stations such as the ISS; scientific satellites like the Hubble; Earth observation satellites from companies like Planet Labs, Umbra, and HawkEye 360; GPS; miniature CubeSats for education and research; and military/defense satellites.

Loading next visibility...
Identifier
65408, 2025-192E
Orbit
LEO
Country
Flag of USUS
Related business
Manufacturer
SpaceX/Seattle
Mission
Operational Commercial Communications
Bus & Motor
STARLINK V2MO, Unknown motor
Mass
575 kg wet, ~530 kg dry
Launch date (UTC)
2025-08-31 (10 months ago)
Launch vehicle
FALCON 9
Launch site
Air Force Eastern Test Range (AFETR)
Object type
Payload
Rocket body
Debris
Shape & HBR
Box + 2 Pan, 17.7 m
Radar Cross Section
36.964 m², Large (>1 m²)

Expand to show TLE details & history
Last TLE update: 1 day ago

TLE from 1 day ago
0 STARLINK-35008
1 65408U 25192E   26170.57752955  .00013390  00000-0  46305-3 0  9990
2 65408  53.1603 119.0939 0001489  86.1959 273.9212 15.30224869 44986
Epoch: 2026-06-19T13:51Z
TLE epoch observation values (Epoch: 2026-06-19T13:51:38.553Z)
Latitude
-0°
Longitude
3.37875°
Altitude
475.971 km
Speed
7.629 km/s
True Right ascension
07h 56m 22s
True Declination
0° 00' 00"
Sunlit
Object was in daylight at epoch
Visualization orbit readout
Latitude
Unknown
Longitude
Unknown
Altitude
Unknown
Speed
Unknown
Apparent Right ascension
Unknown
Apparent Declination
Unknown
Sunlit
N/A
Visualization observer readout
Local Sidereal Time
07:15:12
Azimuth
Unknown
Elevation
Unknown
Doppler factor
Unknown
Orbital elements
Apogee altitude
476.418 km
Perigee altitude
474.377 km
Semi-major axis
6,853.534 km
Eccentricity
0.00015
Inclination
53.1603°
RAAN
119.0939°
Arg. of periapsis
86.1959°
True anomaly
273.90418°
Mean anomaly
273.9212°
Eccentric anomaly
273.91269°
Mean motion
3.82535 °/min
Orbital period
94.11 mins
BSTAR
0.00046305
Loading maneuver chart data...
Computing Atmospheric mass density...
Loading historical data...
Loading historical data...
Loading historical data...
Loading historical data...
Loading historical data...
Loading historical data...
Loading historical data...

Documentation

Showing up to 5 results
|